Regional Weather Roundup
Issued by NWS Charleston, SC

Current Version | Previous Version | Text Only | Print | Product List | Glossary Off
Versions: 1 2 3 4 5 6 7 8 9 10 11 12 13 14 15 16 17 18 19 20 21 22 23 24 25 26 27 28 29 30 31 32 33 34 35 36 37 38 39 40 41 42 43 44 45 46 47 48 49 50

000
ASUS42 KCHS 290413
RWRCHS

REGIONAL WEATHER ROUNDUP
NATIONAL WEATHER SERVICE CHARLESTON SC
1200 AM EDT SUN MAY 29 2016

NOTE: "FAIR" INDICATES FEW OR NO CLOUDS BELOW 12,000 FEET WITH NO
SIGNIFICANT WEATHER AND/OR OBSTRUCTIONS TO VISIBILITY.

NOT ALL STATIONS ARE QUALITY CONTROLLED. USE DATA WITH CAUTION...
ESPECIALLY DEWPOINT OBSERVATIONS.

SCZ027-030-031-034>040-042>050-290500-
...SOUTHEAST SOUTH CAROLINA...

CITY           SKY/WX    TMP DP  RH WIND       PRES   REMARKS
N CHARLESTON   LGT RAIN  70  68  93 N15       30.01F
WATERFRONT PRK   N/A     71  71 100 N13       29.99F
MOUNT PLEASANT CLOUDY    72  72 100 N8        30.00F FOG
JOHNS ISLAND   DRIZZLE   72  70  94 N7        30.01F
PINOPOLIS        N/A     73  72  94 NE16      29.97F
MONCKS CORNER  CLOUDY    68  66  94 N7        30.04F
SUMMERVILLE    DRIZZLE   68  68 100 N9        30.05S
BEAUFORT MCAS  HVY RAIN  69  68  96 MISG      30.03F FOG
BEAUFORT ARPT  RAIN      70  68  94 N15       30.02F
HILTON HEAD IS RAIN      70  70 100 N20G26    30.00F
WALTERBORO     HVY RAIN  68  68 100 NW7       30.05F
ALLENDALE      LGT RAIN  68  66  94 VRB3      30.08R

...SOUTHERN MIDLANDS AND PEE DEE...

CITY           SKY/WX    TMP DP  RH WIND       PRES   REMARKS
GEORGETOWN     CLOUDY    72  68  88 NE7       30.04F
KINGSTREE      RAIN      70  68  94 N3        30.07F
ORANGEBURG     RAIN      69  65  86 N7        30.09S FOG
BARNWELL       DRIZZLE   70  70 100 N6        30.09F
AIKEN          LGT RAIN  66  64  94 CALM      30.13F
MANNING        RAIN      68  68 100 N6        30.07F
COLUMBIA       RAIN      72  68  87 NE3       30.09F
SUMTER         NOT AVBL
FLORENCE       CLOUDY    73  69  87 N8        30.09F
MYRTLE BEACH   CLOUDY    73  66  78 NE8       30.07F
N MYRTLE BEACH CLOUDY    73  71  93 NE9       30.05F

$$

GAZ063-065-086>088-099>101-113>116-118-119-134>141-150-290500-
...SOUTHEAST GEORGIA...

CITY           SKY/WX    TMP DP  RH WIND       PRES   REMARKS
SAVANNAH ARPT  RAIN      69  67  93 NW12      30.04R
HUNTER AAF     NOT AVBL
FORT STEWART   NOT AVBL
STATESBORO     CLOUDY    69  67  93 N6        30.07S
SYLVANIA       RAIN      70  67  92 N7        30.08F
CLAXTON        FAIR      71  66  83 W5        30.08S

...CSRA...CENTRAL AND FAR SOUTHEAST GEORGIA...

CITY           SKY/WX    TMP DP  RH WIND       PRES   REMARKS
THOMSON        CLOUDY    73  70  89 CALM      30.16S
AUGUSTA-BUSH   LGT RAIN  67  65  93 E3        30.08F
AUGUSTA-DANIEL LGT RAIN  70  63  78 E8        30.10F
SWAINSBORO     CLOUDY    68  66  94 CALM      30.11F
VIDALIA        CLOUDY    72  63  73 N3        30.10S
EASTMAN        CLOUDY    74  67  77 E7        30.12S
HAZLEHURST     FAIR      74  65  71 CALM      30.08F
ALMA           CLOUDY    72  64  76 VRB3      30.06F
WAYCROSS       CLOUDY    71  67  87 N5        30.07S
JESUP          FAIR      66  63  88 N5        30.08R
BAXLEY         MOCLDY    72  66  83 CALM      30.08F
BRUNSWICK      CLOUDY    73  70  88 NW6       30.06R
SAINT SIMONS   MOCLDY    71  68  90 NW6       30.05R

$$

SCZ027-028-034-036>038-045-046-048>050-GAZ119-141-290500-
...LAKE AND SUPPLEMENTAL COASTAL OBSERVATIONS...

STATION/POSITION TIME  TEMP    WIND        PRES    WAVE   SWELL
                       AIR SEA DIR/SP/G            HT/PER HT/PER/DIR
                 (UTC) (F)     (DEG/KT/KT) (MB)    (FT/S) (FT/S/D)
WINYAH BAY       0245   74      60/ 14     1017.0
LAKE MURRAY      0300   72      CALM  /  3 1019.3F
ACE BASIN NERRS  NOT AVBL
FORT PULASKI     0300   70 76              1016.4F
SAPELO ISLAND    0300   72     340/  8     1017.0S

$$

ANZ835-935-AMZ111-154-330-350-352-354-370-450-454-472-290500-
...C-MAN AND BUOY OBSERVATIONS...

STATION/POSITION TIME  TEMP    WIND        PRES    WAVE   SWELL
                       AIR SEA DIR/SP/G            HT/PER HT/PER/DIR
                 (UTC) (F)     (DEG/KT/KT) (MB)    (FT/S) (FT/S/D)
BUOY 41004       0350   76 78   80/ 14/ 16 1014.5R   8/ 8   5/ 8
BUOY 41008       0350   73 76  350/ 17/ 21 1015.8R   7/ 6
FOLLY BEACH CMAN 0300   71      20/ 11/ 16 1016.5S
CAPERS NEARSHORE 0308   74 75   60/ 14/ 23 1016.7S
FRIPP NEARSHORE  0308   72 76  360/ 21/ 29 1015.8R


STATION/POSITION TIME  TEMP    WIND        PRES    WAVE   SWELL
                       AIR SEA DIR/SP/G            HT/PER HT/PER/DIR
                 (UTC) (F)     (DEG/KT/KT) (MB)    (FT/S) (FT/S/D)
5E ST. MARYS GA  0401      78                N/A     6/ 8
FRYING PAN BUOY  0300   78 77  100/ 16/ 19 1017.1F
BUOY 41025       0350   78 78  140/ 14/ 16 1019.9F   5/ 9   3/110/ 9
CAPE LOOKOUT NC  0300   75     100/  9/ 10 1019.3F
BUOY 41002       0350   75 75  130/ 16/ 17 1018.7R   5/ 6
BUOY 41010       0320   78 79  200/  6/  8 1017.0R
ST AUGUSTINE FL  0400   75 79  360/ 13/ 14 1018.1R


$$




USA.gov is the U.S. government's official web portal to all federal, state and local government web resources and services.